When you browse on this site, cookies collect data to enhance your experience and personalize the content and advertising you see.
Visit our Privacy Policy to learn more. By continuing to use the site, you agree to this use of cookies and data.
  • In United Kingdom
  • List of Countries
  • For 7 days
  • Water Temperature
  • Satellite Maps
  • Weather Map
  • Weather Widgets
  • user-avatar
    Login

    Hourly Weather Monreale

    Today, 26 March, Tuesday

    Time Temperature Precipitation Wind Pressure Humidity
    00:00 +7°C° 0 mm 4 mps 731 mmHg 82%
    01:00 +7°C° 0 mm 5 mps 731 mmHg 81%
    02:00 +7°C° 0 mm 5 mps 731 mmHg 85%
    03:00 +7°C° 0 mm 5 mps 730 mmHg 89%
    04:00 +7°C° 0 mm 5 mps 730 mmHg 93%
    05:00 +7°C° 0 mm 5 mps 730 mmHg 93%
    06:00 +8°C° 0 mm 5 mps 731 mmHg 93%
    07:00 +8°C° 0 mm 4 mps 731 mmHg 93%
    08:00 +10°C° 0 mm 5 mps 731 mmHg 83%
    09:00 +13°C° 0 mm 5 mps 731 mmHg 73%
    10:00 +15°C° 0 mm 5 mps 731 mmHg 63%
    11:00 +15°C° 0 mm 5 mps 731 mmHg 62%
    12:00 +16°C° 0 mm 6 mps 731 mmHg 61%
    13:00 +16°C° 0 mm 6 mps 731 mmHg 61%
    14:00 +15°C° 0 mm 7 mps 731 mmHg 62%
    15:00 +15°C° 0 mm 7 mps 731 mmHg 63%
    16:00 +14°C° 0 mm 7 mps 731 mmHg 65%
    17:00 +13°C° 0 mm 6 mps 731 mmHg 71%
    18:00 +10°C° 0 mm 6 mps 731 mmHg 77%
    19:00 +9°C° 0 mm 5 mps 731 mmHg 82%
    20:00 +8°C° 0 mm 5 mps 732 mmHg 84%
    21:00 +8°C° 0 mm 4 mps 732 mmHg 86%
    22:00 +8°C° 0 mm 4 mps 732 mmHg 87%
    23:00 +8°C° 0 mm 4 mps 733 mmHg 88%

    Tomorrow, 27 March, Wednesday

    Time Temperature Precipitation Wind Pressure Humidity
    00:00 +7°C° 0 mm 5 mps 733 mmHg 88%
    01:00 +7°C° 0 mm 5 mps 733 mmHg 88%
    02:00 +7°C° 0 mm 5 mps 732 mmHg 89%
    03:00 +7°C° 0 mm 5 mps 732 mmHg 91%
    04:00 +7°C° 0 mm 5 mps 732 mmHg 92%
    05:00 +7°C° 0.1 mm 5 mps 732 mmHg 92%
    06:00 +8°C° 0.1 mm 5 mps 732 mmHg 92%
    07:00 +8°C° 0.1 mm 4 mps 732 mmHg 92%
    08:00 +10°C° 0.2 mm 4 mps 733 mmHg 87%
    09:00 +12°C° 0.2 mm 4 mps 733 mmHg 82%
    10:00 +13°C° 0.2 mm 4 mps 733 mmHg 77%
    11:00 +13°C° 0.2 mm 3 mps 733 mmHg 76%
    12:00 +13°C° 0.2 mm 3 mps 734 mmHg 74%
    13:00 +15°C° 0.2 mm 2 mps 734 mmHg 73%
    14:00 +14°C° 0.3 mm 2 mps 733 mmHg 73%
    15:00 +14°C° 0.3 mm 2 mps 733 mmHg 73%
    16:00 +14°C° 0.3 mm 2 mps 733 mmHg 73%
    17:00 +13°C° 0.4 mm 2 mps 733 mmHg 79%
    18:00 +12°C° 0.4 mm 2 mps 734 mmHg 85%
    19:00 +10°C° 0.4 mm 2 mps 734 mmHg 91%
    20:00 +9°C° 0.2 mm 2 mps 734 mmHg 92%
    21:00 +9°C° 0.2 mm 2 mps 735 mmHg 94%
    22:00 +8°C° 0.2 mm 2 mps 735 mmHg 95%
    23:00 +8°C° 0 mm 2 mps 735 mmHg 96%

    Day after tomorrow, 28 March, Thursday

    Time Temperature Precipitation Wind Pressure Humidity
    00:00 +8°C° 0 mm 2 mps 735 mmHg 96%
    01:00 +8°C° 0 mm 1 mps 735 mmHg 96%
    02:00 +7°C° 0 mm 2 mps 735 mmHg 96%
    03:00 +7°C° 0 mm 2 mps 735 mmHg 96%
    04:00 +7°C° 0 mm 3 mps 735 mmHg 95%
    05:00 +8°C° 0 mm 3 mps 736 mmHg 95%
    06:00 +8°C° 0 mm 3 mps 736 mmHg 95%
    07:00 +8°C° 0 mm 3 mps 736 mmHg 94%
    08:00 +10°C° 0 mm 3 mps 736 mmHg 88%
    09:00 +11°C° 0 mm 3 mps 737 mmHg 82%
    10:00 +12°C° 0 mm 4 mps 737 mmHg 76%
    11:00 +13°C° 0 mm 4 mps 737 mmHg 73%
    12:00 +13°C° 0 mm 4 mps 738 mmHg 70%
    13:00 +13°C° 0 mm 4 mps 738 mmHg 67%
    14:00 +13°C° 0 mm 4 mps 737 mmHg 68%
    15:00 +13°C° 0 mm 4 mps 737 mmHg 70%
    16:00 +12°C° 0 mm 4 mps 737 mmHg 71%
    17:00 +11°C° 0 mm 4 mps 737 mmHg 77%
    18:00 +9°C° 0 mm 3 mps 738 mmHg 83%
    19:00 +8°C° 0 mm 2 mps 738 mmHg 89%
    20:00 +7°C° 0 mm 2 mps 738 mmHg 90%
    21:00 +7°C° 0 mm 2 mps 739 mmHg 90%
    22:00 +8°C° 0 mm 1 mps 739 mmHg 91%
    23:00 +8°C° 0 mm 1 mps 739 mmHg 90%

    29 March, Friday

    Time Temperature Precipitation Wind Pressure Humidity
    00:00 +7°C° 0 mm 1 mps 739 mmHg 90%
    01:00 +7°C° 0 mm 1 mps 739 mmHg 90%
    02:00 +7°C° 0 mm 1 mps 739 mmHg 89%
    03:00 +7°C° 0 mm 1 mps 739 mmHg 88%
    04:00 +7°C° 0 mm 1 mps 739 mmHg 88%
    05:00 +8°C° 0 mm 1 mps 740 mmHg 86%
    06:00 +9°C° 0 mm 1 mps 740 mmHg 85%
    07:00 +9°C° 0 mm 1 mps 740 mmHg 84%
    08:00 +11°C° 0 mm 1 mps 741 mmHg 76%
    09:00 +13°C° 0 mm 1 mps 741 mmHg 68%
    10:00 +15°C° 0 mm 1 mps 741 mmHg 60%
    11:00 +15°C° 0 mm 2 mps 741 mmHg 59%
    12:00 +16°C° 0 mm 2 mps 741 mmHg 58%
    13:00 +16°C° 0 mm 3 mps 741 mmHg 57%
    14:00 +16°C° 0 mm 3 mps 741 mmHg 58%
    15:00 +14°C° 0 mm 3 mps 741 mmHg 59%
    16:00 +14°C° 0 mm 3 mps 741 mmHg 60%
    17:00 +12°C° 0 mm 3 mps 741 mmHg 66%
    18:00 +10°C° 0 mm 2 mps 741 mmHg 73%
    19:00 +8°C° 0 mm 2 mps 740 mmHg 79%
    20:00 +7°C° 0 mm 2 mps 741 mmHg 78%
    21:00 +8°C° 0 mm 1 mps 741 mmHg 78%
    22:00 +7°C° 0 mm 1 mps 741 mmHg 77%
    23:00 +7°C° 0 mm 1 mps 741 mmHg 76%

    30 March, Saturday

    Time Temperature Precipitation Wind Pressure Humidity
    00:00 +7°C° 0 mm 1 mps 741 mmHg 75%
    01:00 +7°C° 0 mm 1 mps 741 mmHg 75%
    02:00 +7°C° 0 mm 1 mps 741 mmHg 75%
    03:00 +6°C° 0 mm 1 mps 741 mmHg 75%
    04:00 +6°C° 0 mm 1 mps 741 mmHg 74%
    05:00 +7°C° 0 mm 1 mps 741 mmHg 72%
    06:00 +8°C° 0 mm 1 mps 741 mmHg 70%
    07:00 +8°C° 0 mm 1 mps 741 mmHg 67%
    08:00 +11°C° 0 mm 1 mps 741 mmHg 62%
    09:00 +13°C° 0 mm 1 mps 741 mmHg 57%
    10:00 +15°C° 0 mm 1 mps 741 mmHg 52%
    11:00 +15°C° 0 mm 2 mps 741 mmHg 53%
    12:00 +16°C° 0 mm 2 mps 741 mmHg 53%
    13:00 +16°C° 0 mm 3 mps 740 mmHg 54%
    14:00 +16°C° 0 mm 3 mps 740 mmHg 57%
    15:00 +14°C° 0 mm 3 mps 739 mmHg 60%
    16:00 +14°C° 0 mm 3 mps 739 mmHg 63%
    17:00 +13°C° 0 mm 2 mps 739 mmHg 70%
    18:00 +10°C° 0 mm 2 mps 738 mmHg 77%
    19:00 +8°C° 0 mm 1 mps 738 mmHg 83%
    20:00 +8°C° 0 mm 1 mps 738 mmHg 83%
    21:00 +8°C° 0 mm 1 mps 738 mmHg 83%
    22:00 +7°C° 0 mm 1 mps 738 mmHg 83%
    23:00 +7°C° 0 mm 1 mps 738 mmHg 80%

    31 March, Sunday

    Time Temperature Precipitation Wind Pressure Humidity
    00:00 +7°C° 0 mm 1 mps 738 mmHg 77%
    01:00 +7°C° 0 mm 1 mps 737 mmHg 74%
    02:00 +6°C° 0 mm 1 mps 737 mmHg 72%
    03:00 +6°C° 0 mm 1 mps 737 mmHg 71%
    04:00 +6°C° 0 mm 1 mps 736 mmHg 69%
    05:00 +7°C° 0 mm 1 mps 736 mmHg 69%
    06:00 +8°C° 0 mm 1 mps 736 mmHg 69%
    07:00 +8°C° 0 mm 1 mps 736 mmHg 69%
    08:00 +11°C° 0 mm 1 mps 736 mmHg 62%
    09:00 +13°C° 0 mm 1 mps 736 mmHg 55%
    10:00 +15°C° 0 mm 1 mps 736 mmHg 48%
    11:00 +16°C° 0 mm 1 mps 736 mmHg 48%
    12:00 +16°C° 0 mm 2 mps 736 mmHg 48%
    13:00 +17°C° 0 mm 3 mps 735 mmHg 48%
    14:00 +16°C° 0 mm 3 mps 735 mmHg 51%
    15:00 +16°C° 0 mm 3 mps 734 mmHg 55%
    16:00 +14°C° 0 mm 3 mps 734 mmHg 58%
    17:00 +13°C° 0 mm 2 mps 734 mmHg 66%
    18:00 +10°C° 0 mm 2 mps 734 mmHg 74%
    19:00 +8°C° 0 mm 2 mps 734 mmHg 81%
    20:00 +9°C° 0 mm 1 mps 734 mmHg 81%
    21:00 +9°C° 0 mm 1 mps 734 mmHg 81%
    22:00 +8°C° 0 mm 1 mps 734 mmHg 81%
    23:00 +8°C° 0 mm 1 mps 733 mmHg 81%
    Show more